When you browse on this site, cookies collect data to enhance your experience and personalize the content and advertising you see.
Visit our Privacy Policy to learn more. By continuing to use the site, you agree to this use of cookies and data.
  • In Hungary
  • List of Countries
  • For 7 days
  • Water Temperature
  • Satellite Maps
  • Weather Map
  • News
  • Weather Widgets
  • user-avatar
    Login

    Hourly Weather Alhos Vedros

    Today, 24 July, Wednesday

    Time Temperature Precipitation Wind Pressure Humidity
    00:00 +20°C° 0 mm 3 mps 761 mmHg 71%
    01:00 +19°C° 0 mm 2 mps 760 mmHg 73%
    02:00 +19°C° 0 mm 2 mps 760 mmHg 75%
    03:00 +19°C° 0 mm 2 mps 760 mmHg 77%
    04:00 +20°C° 0 mm 1 mps 760 mmHg 78%
    05:00 +20°C° 0 mm 1 mps 760 mmHg 79%
    06:00 +22°C° 0 mm 1 mps 760 mmHg 68%
    07:00 +25°C° 0 mm 1 mps 760 mmHg 56%
    08:00 +28°C° 0 mm 2 mps 760 mmHg 45%
    09:00 +30°C° 0 mm 2 mps 760 mmHg 39%
    10:00 +32°C° 0 mm 2 mps 760 mmHg 33%
    11:00 +35°C° 0 mm 2 mps 760 mmHg 27%
    12:00 +35°C° 0 mm 3 mps 759 mmHg 26%
    13:00 +35°C° 0 mm 4 mps 759 mmHg 26%
    14:00 +35°C° 0 mm 5 mps 759 mmHg 25%
    15:00 +33°C° 0 mm 5 mps 759 mmHg 32%
    16:00 +32°C° 0 mm 6 mps 759 mmHg 39%
    17:00 +29°C° 0 mm 6 mps 759 mmHg 46%
    18:00 +27°C° 0 mm 5 mps 759 mmHg 59%
    19:00 +25°C° 0 mm 4 mps 759 mmHg 72%
    20:00 +22°C° 0 mm 3 mps 760 mmHg 84%
    21:00 +21°C° 0 mm 3 mps 760 mmHg 87%
    22:00 +21°C° 0 mm 2 mps 759 mmHg 89%
    23:00 +22°C° 0 mm 1 mps 759 mmHg 92%

    Tomorrow, 25 July, Thursday

    Time Temperature Precipitation Wind Pressure Humidity
    00:00 +21°C° 0 mm 1 mps 759 mmHg 93%
    01:00 +21°C° 0 mm 1 mps 759 mmHg 94%
    02:00 +21°C° 0 mm 1 mps 759 mmHg 94%
    03:00 +22°C° 0 mm 1 mps 760 mmHg 93%
    04:00 +22°C° 0 mm 1 mps 760 mmHg 92%
    05:00 +22°C° 0 mm 1 mps 760 mmHg 92%
    06:00 +23°C° 0 mm 1 mps 760 mmHg 87%
    07:00 +24°C° 0 mm 1 mps 760 mmHg 82%
    08:00 +25°C° 0 mm 1 mps 760 mmHg 78%
    09:00 +26°C° 0 mm 2 mps 760 mmHg 70%
    10:00 +28°C° 0 mm 2 mps 760 mmHg 63%
    11:00 +29°C° 0 mm 3 mps 760 mmHg 55%
    12:00 +30°C° 0 mm 4 mps 760 mmHg 52%
    13:00 +30°C° 0 mm 4 mps 760 mmHg 50%
    14:00 +30°C° 0 mm 4 mps 760 mmHg 47%
    15:00 +29°C° 0 mm 5 mps 760 mmHg 54%
    16:00 +28°C° 0 mm 6 mps 760 mmHg 61%
    17:00 +26°C° 0 mm 6 mps 760 mmHg 68%
    18:00 +24°C° 0 mm 6 mps 760 mmHg 71%
    19:00 +23°C° 0 mm 6 mps 761 mmHg 74%
    20:00 +21°C° 0 mm 5 mps 761 mmHg 77%
    21:00 +21°C° 0 mm 5 mps 761 mmHg 79%
    22:00 +20°C° 0 mm 5 mps 761 mmHg 81%
    23:00 +19°C° 0 mm 5 mps 761 mmHg 83%

    Day after tomorrow, 26 July, Friday

    Time Temperature Precipitation Wind Pressure Humidity
    00:00 +19°C° 0 mm 5 mps 761 mmHg 84%
    01:00 +18°C° 0 mm 4 mps 761 mmHg 85%
    02:00 +18°C° 0 mm 4 mps 761 mmHg 85%
    03:00 +18°C° 0 mm 4 mps 762 mmHg 87%
    04:00 +18°C° 0 mm 4 mps 762 mmHg 88%
    05:00 +18°C° 0 mm 4 mps 762 mmHg 90%
    06:00 +19°C° 0 mm 4 mps 762 mmHg 80%
    07:00 +21°C° 0 mm 5 mps 762 mmHg 71%
    08:00 +23°C° 0 mm 5 mps 762 mmHg 61%
    09:00 +24°C° 0 mm 6 mps 762 mmHg 56%
    10:00 +26°C° 0 mm 6 mps 762 mmHg 52%
    11:00 +27°C° 0 mm 7 mps 762 mmHg 47%
    12:00 +27°C° 0 mm 7 mps 762 mmHg 46%
    13:00 +27°C° 0 mm 8 mps 762 mmHg 46%
    14:00 +27°C° 0 mm 8 mps 762 mmHg 45%
    15:00 +26°C° 0 mm 8 mps 762 mmHg 49%
    16:00 +24°C° 0 mm 8 mps 762 mmHg 53%
    17:00 +23°C° 0 mm 8 mps 762 mmHg 57%
    18:00 +22°C° 0 mm 7 mps 762 mmHg 62%
    19:00 +20°C° 0 mm 6 mps 763 mmHg 67%
    20:00 +19°C° 0 mm 6 mps 763 mmHg 73%
    21:00 +17°C° 0 mm 5 mps 763 mmHg 74%
    22:00 +17°C° 0 mm 5 mps 763 mmHg 76%
    23:00 +17°C° 0 mm 5 mps 763 mmHg 78%

    27 July, Saturday

    Time Temperature Precipitation Wind Pressure Humidity
    00:00 +17°C° 0 mm 5 mps 762 mmHg 80%
    01:00 +17°C° 0 mm 5 mps 762 mmHg 82%
    02:00 +18°C° 0 mm 4 mps 762 mmHg 84%
    03:00 +18°C° 0 mm 4 mps 762 mmHg 84%
    04:00 +18°C° 0 mm 4 mps 762 mmHg 85%
    05:00 +18°C° 0 mm 3 mps 762 mmHg 85%
    06:00 +19°C° 0 mm 3 mps 762 mmHg 77%
    07:00 +21°C° 0 mm 3 mps 762 mmHg 69%
    08:00 +24°C° 0 mm 3 mps 762 mmHg 61%
    09:00 +23°C° 0 mm 4 mps 762 mmHg 65%
    10:00 +23°C° 0 mm 4 mps 761 mmHg 69%
    11:00 +23°C° 0 mm 4 mps 761 mmHg 73%
    12:00 +23°C° 0 mm 4 mps 761 mmHg 74%
    13:00 +23°C° 0 mm 5 mps 761 mmHg 75%
    14:00 +25°C° 0 mm 5 mps 760 mmHg 77%
    15:00 +25°C° 0 mm 5 mps 760 mmHg 74%
    16:00 +25°C° 0 mm 5 mps 760 mmHg 72%
    17:00 +26°C° 0 mm 5 mps 760 mmHg 69%
    18:00 +23°C° 0 mm 5 mps 760 mmHg 76%
    19:00 +22°C° 0 mm 4 mps 760 mmHg 82%
    20:00 +20°C° 0 mm 4 mps 760 mmHg 88%
    21:00 +20°C° 0 mm 3 mps 760 mmHg 90%
    22:00 +20°C° 0 mm 2 mps 760 mmHg 91%
    23:00 +19°C° 0 mm 2 mps 760 mmHg 92%

    28 July, Sunday

    Time Temperature Precipitation Wind Pressure Humidity
    00:00 +19°C° 0 mm 2 mps 760 mmHg 90%
    01:00 +19°C° 0 mm 2 mps 759 mmHg 88%
    02:00 +19°C° 0 mm 2 mps 759 mmHg 86%
    03:00 +19°C° 0 mm 2 mps 759 mmHg 86%
    04:00 +18°C° 0 mm 2 mps 759 mmHg 85%
    05:00 +18°C° 0 mm 2 mps 759 mmHg 84%
    06:00 +20°C° 0 mm 3 mps 759 mmHg 75%
    07:00 +22°C° 0 mm 3 mps 759 mmHg 65%
    08:00 +25°C° 0 mm 4 mps 759 mmHg 56%
    09:00 +26°C° 0 mm 4 mps 759 mmHg 52%
    10:00 +28°C° 0 mm 5 mps 759 mmHg 48%
    11:00 +29°C° 0 mm 5 mps 759 mmHg 44%
    12:00 +29°C° 0 mm 6 mps 759 mmHg 44%
    13:00 +29°C° 0 mm 6 mps 758 mmHg 43%
    14:00 +29°C° 0 mm 7 mps 758 mmHg 43%
    15:00 +28°C° 0 mm 7 mps 758 mmHg 45%
    16:00 +27°C° 0 mm 8 mps 758 mmHg 48%
    17:00 +26°C° 0 mm 8 mps 758 mmHg 50%
    18:00 +23°C° 0 mm 7 mps 759 mmHg 57%
    19:00 +21°C° 0 mm 6 mps 759 mmHg 64%
    20:00 +19°C° 0 mm 6 mps 760 mmHg 71%
    21:00 +19°C° 0 mm 5 mps 760 mmHg 74%
    22:00 +18°C° 0 mm 4 mps 759 mmHg 77%
    23:00 +17°C° 0 mm 4 mps 759 mmHg 80%

    29 July, Monday

    Time Temperature Precipitation Wind Pressure Humidity
    00:00 +17°C° 0 mm 4 mps 759 mmHg 82%
    01:00 +17°C° 0 mm 4 mps 759 mmHg 83%
    02:00 +17°C° 0 mm 4 mps 759 mmHg 84%
    03:00 +17°C° 0 mm 3 mps 759 mmHg 85%
    04:00 +17°C° 0 mm 3 mps 759 mmHg 86%
    05:00 +17°C° 0 mm 3 mps 759 mmHg 87%
    06:00 +19°C° 0 mm 3 mps 760 mmHg 74%
    07:00 +21°C° 0 mm 4 mps 760 mmHg 62%
    08:00 +25°C° 0 mm 4 mps 760 mmHg 50%
    09:00 +27°C° 0 mm 5 mps 760 mmHg 43%
    10:00 +29°C° 0 mm 5 mps 760 mmHg 37%
    11:00 +32°C° 0 mm 6 mps 760 mmHg 31%
    12:00 +30°C° 0 mm 6 mps 760 mmHg 32%
    13:00 +30°C° 0 mm 7 mps 759 mmHg 33%
    14:00 +30°C° 0 mm 7 mps 759 mmHg 34%
    15:00 +29°C° 0 mm 7 mps 759 mmHg 40%
    16:00 +28°C° 0 mm 7 mps 759 mmHg 46%
    17:00 +27°C° 0 mm 7 mps 759 mmHg 52%
    18:00 +24°C° 0 mm 6 mps 760 mmHg 63%
    19:00 +22°C° 0 mm 6 mps 760 mmHg 74%
    20:00 +21°C° 0 mm 5 mps 761 mmHg 85%
    21:00 +21°C° 0 mm 5 mps 761 mmHg 83%
    22:00 +21°C° 0 mm 5 mps 761 mmHg 82%
    23:00 +22°C° 0 mm 6 mps 761 mmHg 81%
    Show more